sat.trackr.live / text

‹ back to catalog

ONEWEB-0332

NORAD 49279 · 2021-090A

PAYLOAD ACTIVE UNKNOWN

§ Identity

Operator
Country
UK
Launch date
2021-10-14
Launch site
VOSTO
Launch vehicle
Mass (kg)
RCS (m²)

Purposes: comms

External: N2YO · Heavens-Above · Gunter

§ Orbital elements

Epoch: 2026-09-13T01:25:19.734816Z

Period
109.55 min
Inclination
87.8900°
Eccentricity
0.0001997
Mean motion
13.14503356 rev/d
Perigee alt
1,204.3 km
Apogee alt
1,207.3 km
Semi-major
7,583.9 km
B*
8.1752e-5
RAAN
272.1850°
Arg perigee
85.7940°
Mean anomaly
274.3418°
Rev number
23,912

§ Raw data

ONEWEB-03321 49279U 21090A   26256.05925619  .00000043  00000+0  81752-4 0  99942 49279  87.8900 272.1850 0001997  85.7940 274.3418 13.14503356239126

JSON: /api/v1/satellites/49279 · /tle

For live sub-satellite position, see the globe view (requires WebGL).

§ Visibility from observer

Set your observer location to see the next 7 days of passes ≥ 10°. The values pass through the URL so the page stays shareable.

No JS? Fill the form by hand. The geolocation button needs JavaScript.